| time (UTC) | temp F | wind direction | speed MPH | gust MPH | rain 1hr in | rain 24hr in | rain mn in | humidity % | barometer mb |
| 20260508150855 | 65 | 276 | 3.0 | 3.0 | 0.00 | 0.07 | 0.00 | 42 | 1016.7 |
| 20260508140850 | 63 | 317 | 4.0 | 4.0 | 0.00 | 0.07 | 0.00 | 49 | 1016.7 |
| 20260508130853 | 58 | 19 | 0.0 | 0.0 | 0.00 | 0.07 | 0.00 | 70 | 1016.8 |
| 20260508120858 | 49 | 273 | 0.0 | 0.0 | 0.00 | 0.07 | 0.00 | 96 | 1016.1 |
| 20260508110904 | 43 | 254 | 0.0 | 0.0 | 0.00 | 0.07 | 0.00 | 96 | 1015.1 |
| 20260508100900 | 42 | 245 | 0.0 | 0.0 | 0.00 | 0.07 | 0.00 | 95 | 1014.5 |
| 20260508090906 | 42 | 245 | 1.0 | 1.0 | 0.00 | 0.08 | 0.00 | 95 | 1013.9 |
| 20260508080852 | 43 | 244 | 0.0 | 0.0 | 0.00 | 0.08 | 0.00 | 95 | 1013.3 |
| 20260508070856 | 44 | 244 | 0.0 | 0.0 | 0.00 | 0.08 | 0.00 | 95 | 1012.9 |
| 20260508060849 | 45 | 244 | 0.0 | 0.0 | 0.00 | 0.08 | 0.00 | 95 | 1012.5 |
| 20260508050903 | 47 | 246 | 0.0 | 0.0 | 0.00 | 0.08 | 0.00 | 95 | 1012.4 |
| 20260508040908 | 48 | 246 | 0.0 | 0.0 | 0.00 | 0.08 | 0.00 | 95 | 1012.0 |
| 20260508030858 | 49 | 246 | 0.0 | 0.0 | 0.00 | 0.08 | 0.08 | 94 | 1011.9 |
| 20260508020848 | 48 | 246 | 0.0 | 0.0 | 0.00 | 0.08 | 0.08 | 93 | 1011.4 |
| 20260508010849 | 50 | 246 | 1.0 | 1.0 | 0.00 | 0.08 | 0.08 | 92 | 1011.3 |
| 20260508000843 | 52 | 246 | 0.0 | 0.0 | 0.00 | 0.08 | 0.08 | 91 | 1010.6 |
| 20260507230858 | 54 | 248 | 2.0 | 2.0 | 0.00 | 0.08 | 0.08 | 88 | 1009.8 |
| 20260507220850 | 54 | 244 | 0.0 | 2.0 | 0.00 | 0.08 | 0.08 | 87 | 1009.8 |
| 20260507210916 | 54 | 135 | 3.0 | 3.0 | 0.05 | 0.08 | 0.08 | 89 | 1009.6 |
| 20260507200921 | 55 | 46 | 1.0 | 1.0 | 0.00 | 0.03 | 0.03 | 82 | 1010.0 |
| 20260507190846 | 56 | 49 | 3.0 | 3.0 | 0.00 | 0.04 | 0.03 | 76 | 1010.4 |
| 20260507180845 | 56 | 60 | 0.0 | 2.0 | 0.00 | 0.04 | 0.03 | 75 | 1010.5 |
| 20260507170858 | 56 | 30 | 2.0 | 4.0 | 0.00 | 0.04 | 0.03 | 78 | 1011.3 |
| 20260507160849 | 55 | 355 | 7.0 | 7.0 | 0.02 | 0.05 | 0.03 | 87 | 1011.9 |